User: anonymous   Login
Location: Cran-Gévrier
(45.9039°N, 6.1012°E)
Time: 02:34:03
(UTC+00:00)
Language:

Okean-O - Orbit

View from above orbital plane
View from above orbital plane
View from above satellite
View from above satellite

Ground track
Ground track

The orbit data is extracted from the following two-line orbital elements,

1 25860U 99039A   24106.13789079  .00001384  00000-0  19782-3 0  9994
2 25860  98.0428 158.5984 0001850  86.7750 273.3672 14.78255203331847
Epoch (UTC): 15 April 2024 03:18:33
Eccentricity: 0.0001850
inclination: 98.0428°
perigee height: 633 km
apogee height: 636 km
right ascension of ascending node: 158.5984°
argument of perigee: 86.7750°
revolutions per day: 14.78255203
mean anomaly at epoch: 273.3672°
orbit number at epoch: 33184

The dashed part of the orbit path shows where the satellite is in the earth's shadow,  

DLR